Location: Newark
(41.6500°N, 71.4833°W)
Time: 19:41:44
(UTC+00:00)

deb Explorer IX - Pass Details

Date: 25 January 2020
Orbit: 549 x 1099 km, 38.8° (Epoch: 18 February)

Event Time Altitude Azimuth Distance (km) Brightness Sun altitude
Rises 00:49:06 0° 200° (SSW) 3,637 ? -33.1°
Enters shadow 00:52:10 - 185° (S) 2,843 ? -33.7°
Reaches altitude 10° 00:52:28 10° 184° (S) 2,779 - -33.8°
Maximum altitude 00:57:01 19° 141° (SE) 2,272 - -34.6°
Drops below altitude 10° 01:01:48 10° 100° (E) 2,931 - -35.5°
Sets 01:05:27 0° 84° (E) 3,908 - -36.2°
